Regional Weather Roundup
Issued by NWS Cleveland, OH

Home | Current Version | Previous Version | Graphics & Text | Print | Product List | Glossary On
Versions: 1 2 3 4 5 6 7 8 9 10 11 12 13 14 15 16 17 18 19 20 21 22 23 24 25 26 27 28 29 30 31 32 33 34 35 36 37 38 39 40 41 42 43 44 45 46 47 48 49 50
000
ASUS41 KCLE 240110
RWRCLE
OHIO REGIONAL WEATHER ROUNDUP
NATIONAL WEATHER SERVICE WILMINGTON, OH
900 PM EDT TUE AUG 23 2016

NOTE: "FAIR" INDICATES FEW OR NO CLOUDS BELOW 12,000 FEET WITH NO
SIGNIFICANT WEATHER AND/OR OBSTRUCTIONS TO VISIBILITY.

OHZ001>008-015>018-024>027-034-035-043-044-240200-
   NORTHWEST OHIO

CITY           SKY/WX    TMP DP  RH WIND       PRES   REMARKS
DEFIANCE       FAIR      71  60  68 CALM      30.21S
FINDLAY        FAIR      72  59  63 SE5       30.22S
TOLEDO EXPRESS FAIR      68  63  84 S3        30.21S
TOLEDO EXEC    FAIR      72  62  71 S3        30.22S
LIMA           FAIR      69  63  81 SE3       30.23F
$$

OHZ009>014-019>023-028>033-038-089-240200-
   NORTHEAST OHIO

CITY           SKY/WX    TMP DP  RH WIND       PRES   REMARKS
CLE-HOPKINS    FAIR      75  57  53 NE3       30.26R
CLE-LAKEFRONT  FAIR      73  60  63 NE6       30.23R
CUY CO. ARPT   PTCLDY    70  61  73 CALM      30.25S
LORAIN-ELYRIA  FAIR      71  59  65 CALM      30.25R
ASHTABULA      FAIR      64  62  93 CALM      30.26S
AKRON-CANTON   NOT AVBL
WOOSTER        FAIR      64  58  80 CALM      30.27R
MANSFIELD      FAIR      70  58  65 S3        30.26S
YOUNGSTOWN     NOT AVBL
$$

OHZ042-051>053-060>062-070>072-077>081-240200-
  SOUTHWEST OHIO

CITY           SKY/WX    TMP DP  RH WIND       PRES   REMARKS
CINC-COVINGTON MOCLDY    73  62  68 CALM      30.22F
CINC-LUNKEN    FAIR      70  65  84 CALM      30.22S
HAMILTON       FAIR      69  62  78 CALM      30.22S
DAYTON         CLOUDY    72  59  63 SE8       30.24S
WRIGHT-PAT AFB FAIR      73  60  63 CALM      30.23S
DAYTON GENERAL FAIR      72  59  63 SE6       30.23S
WILMINGTON     FAIR      67  62  84 CALM      30.24F
$$

OHZ036-037-039>041-045>050-054>059-063>069-073>076-082>088-240200-
  CENTRAL AND SOUTHEAST OHIO

CITY           SKY/WX    TMP DP  RH WIND       PRES   REMARKS
COLUMBUS       MOCLDY    74  58  57 CALM      30.23F
OSU AIRPORT    FAIR      75  58  55 S3        30.24S
BOLTON FIELD   FAIR      68  63  84 CALM      30.24F
RICKENBACK AFB FAIR      71  61  70 CALM      30.23F
NEWARK         FAIR      67  62  84 CALM      30.24S
MARION         FAIR      69  58  67 CALM      30.24F
LANCASTER      FAIR      66  64  93 CALM      30.25S
ZANESVILLE     FAIR      69  59  70 CALM      30.25R
NEW PHILLY     FAIR      70  61  73 CALM      30.26R
$$




USA.gov is the U.S. government's official web portal to all federal, state and local government web resources and services.